Lid_Strength_Index
1 1 1 1 1 0 1 0 0 0 0 0 0 0 0 0 -0 0 0 0 1 1 1 1 1 1 1 1 1 1 1 1 3 2 1 0 0 0 -0 -1 -1 0 2
1 1 1 1 1 1 1 1 0 0 0 0 0 0 0 0 0 0 1 1 1 1 1 1 2 1 1 1 1 1 1 0 2 3 2 1 1 0 1 1 2 2 2
1 1 1 1 1 1 1 0 0 0 0 0 0 1 1 0 0 0 0 1 1 1 1 1 1 1 2 1 1 1 1 1 1 2 3 1 1 1 2 2 2 2 2
1 1 2 1 1 1 1 0 0 0 0 0 0 0 0 0 0 0 0 1 1 0 0 1 1 1 1 1 1 1 1 1 2 3 3 2 2 2 2 4 4 3 3
2 2 2 1 1 1 1 1 0 0 0 0 0 0 0 0 0 0 0 1 1 1 0 0 1 1 2 1 1 1 1 2 2 3 3 3 4 4 4 4 4 4 3
2 2 1 1 1 1 1 1 1 1 1 0 1 1 1 1 8 5 2 1 1 1 1 1 0 2 3 4 4 4 1 1 2 3 3 4 5 5 4 4 5 5 6
2 2 1 1 1 1 1 1 1 1 1 1 1 1 1 2 9 8 5 0 1 1 1 1 1 0 1 1 5 5 5 5 3 1 3 3 4 4 4 5 5 5 6
2 2 1 1 2 1 1 1 1 1 1 1 1 1 1 2 10 9 6 0 0 1 1 1 1 1 1 2 1 1 1 0 0 1 1 1 2 4 3 4 5 6 6
2 2 2 1 2 1 2 1 1 1 1 1 1 1 2 1 9 8 4 0 1 1 1 0 1 1 8 8 2 2 1 1 6 6 6 8 8 8 6 5 5 6 7
2 2 1 1 1 2 1 1 1 1 1 1 1 1 4 1 9 9 4 1 2 2 1 1 6 4 11 9 3 3 4 3 2 3 4 7 5 7 7 4 4 5 6
1 1 1 1 1 1 1 1 1 1 1 1 1 1 1 1 2 9 7 1 1 2 2 2 3 10 11 10 7 3 4 3 4 2 2 3 3 3 3 3 2 4 4
1 1 1 1 1 1 1 1 1 1 2 2 2 2 1 1 7 8 8 6 4 1 2 2 5 11 12 11 7 11 9 6 3 3 3 3 4 4 2 3 3 2 2
1 2 1 1 1 1 2 2 2 1 2 2 3 2 2 1 3 9 10 9 7 1 1 5 11 12 12 11 11 10 8 3 3 3 4 4 4 3 3 3 3 1 1
2 2 2 2 2 1 1 1 2 2 2 3 3 2 2 2 1 1 2 3 7 6 8 7 8 8 8 8 7 5 4 3 3 3 3 3 3 3 2 4 3 2 2
2 2 2 2 2 2 1 1 1 1 2 2 2 2 2 3 2 4 4 2 2 5 5 4 4 4 4 4 4 3 3 3 3 4 3 3 3 3 4 2 1 1 1
2 2 2 2 2 2 2 2 11 9 10 8 8 4 1 7 9 10 10 11 11 10 4 4 5 5 4 4 4 3 3 4 3 3 2 2 1 1 1 1 0 1 2
2 2 2 2 2 2 2 2 3 6 12 12 11 10 8 8 11 12 12 12 11 8 3 3 4 4 3 3 3 2 3 2 1 1 1 1 1 1 1 1 1 1 1
1 7 2 2 2 2 2 2 2 2 3 2 10 8 12 12 12 12 12 9 3 4 2 2 3 3 2 2 2 1 1 1 1 1 1 1 1 1 1 1 1 1 1
2 2 1 1 1 2 1 2 2 2 2 2 2 8 12 14 13 13 12 1 2 2 1 2 1 1 1 1 1 1 1 1 1 1 1 1 1 1 1 1 1 7 5
1 5 4 1 2 2 2 2 2 2 2 2 2 2 6 6 4 5 4 1 1 1 1 1 1 1 1 1 1 1 1 1 1 1 1 1 1 1 1 1 1 1 1
1 2 6 1 2 2 2 2 2 2 2 2 2 2 10 1 2 1 2 2 1 1 1 1 1 0 0 0 0 1 1 1 1 1 1 1 0 1 1 1 1 1 1
1 2 2 2 1 2 2 2 2 2 2 2 1 2 14 1 1 1 1 1 1 0 -0 0 0 0 0 0 0 0 1 1 0 0 0 0 0 1 1 1 1 1 1
1 2 2 1 1 5 2 2 2 2 2 1 1 1 4 1 1 1 1 0 0 0 -0 -0 -0 -0 -0 -1 -1 -0 0 0 -0 -0 0 0 1 1 1 1 1 1 1
2 2 2 2 2 2 2 2 2 5 2 1 1 1 1 1 1 1 1 0 0 -0 -0 -0 -0 -0 -0 -1 -1 -1 -1 -1 -1 -1 -1 -0 0 1 0 1 1 1 1
3 2 2 2 2 2 2 2 2 1 1 1 1 1 1 1 1 1 0 0 0 0 -0 -0 -0 -0 -0 -1 -1 -1 2 10 1 4 -1 -0 -0 0 0 1 1 1 1
9 7 6 5 3 2 2 2 2 2 2 1 1 1 0 0 0 0 0 -0 0 0 -0 -0 -0 -1 -1 -1 -1 4 11 12 6 11 -0 -0 0 0 0 1 1 1 1